| time (UTC) | temp F | wind direction | speed MPH | gust MPH | rain 1hr in | rain 24hr in | rain mn in | humidity % | barometer mb |
| 20260905072705 | 57 | 203 | 0.0 | 0.0 | 0.00 | 0.00 | 0.00 | 98 | 1010.0 |
| 20260905072204 | 57 | 111 | 0.0 | 0.0 | 0.00 | 0.00 | 0.00 | 97 | 1010.0 |
| 20260905071704 | 57 | 114 | 0.0 | 0.0 | 0.00 | 0.00 | 0.00 | 97 | 1010.0 |
| 20260905071204 | 57 | 129 | 0.0 | 0.0 | 0.00 | 0.00 | 0.00 | 97 | 1010.0 |
| 20260905070704 | 57 | 117 | 0.0 | 0.0 | 0.00 | 0.00 | 0.00 | 97 | 1010.0 |
| 20260905070204 | 57 | 132 | 0.0 | 0.0 | 0.00 | 0.00 | 0.00 | 97 | 1010.0 |
| 20260905065705 | 57 | 137 | 0.0 | 2.0 | 0.00 | 0.00 | 0.00 | 97 | 1010.2 |
| 20260905064704 | 57 | 107 | 0.0 | 2.0 | 0.00 | 0.00 | 0.00 | 96 | 1010.2 |
| 20260905063204 | 57 | 126 | 0.0 | 0.0 | 0.00 | 0.00 | 0.00 | 96 | 1010.3 |
| 20260905062704 | 57 | 126 | 0.0 | 0.0 | 0.00 | 0.00 | 0.00 | 96 | 1010.3 |
| 20260905062204 | 58 | 126 | 0.0 | 0.0 | 0.00 | 0.00 | 0.00 | 96 | 1010.3 |
| 20260905061204 | 58 | 126 | 0.0 | 0.0 | 0.00 | 0.00 | 0.00 | 96 | 1010.3 |
| 20260905060705 | 58 | 131 | 0.0 | 0.0 | 0.00 | 0.00 | 0.00 | 96 | 1010.4 |
| 20260905060205 | 58 | 181 | 0.0 | 0.0 | 0.00 | 0.00 | 0.00 | 96 | 1010.4 |
| 20260905055704 | 58 | 181 | 0.0 | 0.0 | 0.00 | 0.00 | 0.00 | 96 | 1010.5 |
| 20260905055204 | 59 | 183 | 0.0 | 0.0 | 0.00 | 0.00 | 0.00 | 96 | 1010.4 |
| 20260905054704 | 58 | 140 | 0.0 | 0.0 | 0.00 | 0.00 | 0.00 | 96 | 1010.4 |
| 20260905054205 | 58 | 136 | 1.0 | 3.0 | 0.00 | 0.00 | 0.00 | 96 | 1010.5 |
| 20260905053704 | 58 | 127 | 1.0 | 2.0 | 0.00 | 0.00 | 0.00 | 95 | 1010.4 |
| 20260905053204 | 59 | 118 | 1.0 | 2.0 | 0.00 | 0.00 | 0.00 | 96 | 1010.3 |
| 20260905052704 | 59 | 123 | 0.0 | 0.0 | 0.00 | 0.00 | 0.00 | 96 | 1010.3 |
| 20260905052204 | 59 | 123 | 0.0 | 0.0 | 0.00 | 0.00 | 0.00 | 96 | 1010.4 |
| 20260905051704 | 59 | 123 | 0.0 | 1.0 | 0.00 | 0.00 | 0.00 | 96 | 1010.5 |
| 20260905051205 | 59 | 127 | 1.0 | 2.0 | 0.00 | 0.00 | 0.00 | 95 | 1010.5 |
| 20260905050706 | 59 | 101 | 1.0 | 2.0 | 0.00 | 0.00 | 0.00 | 94 | 1010.6 |
| 20260905050205 | 59 | 103 | 1.0 | 2.0 | 0.00 | 0.00 | 0.00 | 93 | 1010.5 |
| 20260905045204 | 59 | 174 | 0.0 | 1.0 | 0.00 | 0.00 | 0.00 | 94 | 1010.7 |
| 20260905044704 | 59 | 174 | 0.0 | 1.0 | 0.00 | 0.00 | 0.00 | 94 | 1010.7 |
| 20260905044204 | 60 | 165 | 0.0 | 1.0 | 0.00 | 0.00 | 0.00 | 93 | 1010.7 |
| 20260905043704 | 60 | 123 | 0.0 | 1.0 | 0.00 | 0.00 | 0.00 | 93 | 1010.8 |
| 20260905043204 | 60 | 138 | 0.0 | 1.0 | 0.00 | 0.00 | 0.00 | 93 | 1010.8 |
| 20260905042704 | 60 | 138 | 0.0 | 0.0 | 0.00 | 0.00 | 0.00 | 92 | 1010.9 |
| 20260905042204 | 60 | 138 | 0.0 | 1.0 | 0.00 | 0.00 | 0.00 | 92 | 1010.8 |
| 20260905041705 | 60 | 156 | 0.0 | 1.0 | 0.00 | 0.00 | 0.00 | 92 | 1010.8 |
| 20260905040704 | 61 | 259 | 0.0 | 1.0 | 0.00 | 0.00 | 0.00 | 90 | 1010.7 |
| 20260905040204 | 61 | 259 | 1.0 | 2.0 | 0.00 | 0.00 | 0.00 | 91 | 1010.8 |
| 20260905035204 | 61 | 135 | 0.0 | 1.0 | 0.00 | 0.00 | 0.00 | 91 | 1010.9 |
| 20260905034204 | 61 | 135 | 0.0 | 0.0 | 0.00 | 0.00 | 0.00 | 90 | 1010.6 |
| 20260905033704 | 61 | 135 | 0.0 | 1.0 | 0.00 | 0.00 | 0.00 | 89 | 1010.5 |
| 20260905033205 | 62 | 135 | 1.0 | 1.0 | 0.00 | 0.00 | 0.00 | 88 | 1010.5 |
| 20260905031704 | 63 | 236 | 0.0 | 1.0 | 0.00 | 0.00 | 0.00 | 88 | 1010.6 |
| 20260905031204 | 63 | 236 | 0.0 | 1.0 | 0.00 | 0.00 | 0.00 | 88 | 1010.6 |
| 20260905030704 | 63 | 223 | 0.0 | 1.0 | 0.00 | 0.00 | 0.00 | 84 | 1010.6 |
| 20260905030204 | 64 | 206 | 0.0 | 2.0 | 0.00 | 0.00 | 0.00 | 83 | 1010.7 |
| 20260905024704 | 65 | 299 | 0.0 | 0.0 | 0.00 | 0.00 | 0.00 | 82 | 1010.8 |
| 20260905023204 | 66 | 299 | 0.0 | 0.0 | 0.00 | 0.00 | 0.00 | 79 | 1010.7 |
| 20260905022204 | 67 | 297 | 0.0 | 1.0 | 0.00 | 0.00 | 0.00 | 76 | 1010.8 |
| 20260905021704 | 67 | 292 | 0.0 | 2.0 | 0.00 | 0.00 | 0.00 | 76 | 1010.8 |
| 20260905020704 | 67 | 302 | 0.0 | 0.0 | 0.00 | 0.00 | 0.00 | 77 | 1010.8 |
| 20260905020204 | 67 | 302 | 0.0 | 0.0 | 0.00 | 0.00 | 0.00 | 77 | 1010.8 |
| 20260905015205 | 67 | 284 | 0.0 | 0.0 | 0.00 | 0.00 | 0.00 | 76 | 1010.9 |
| 20260905014704 | 67 | 272 | 0.0 | 0.0 | 0.00 | 0.00 | 0.00 | 76 | 1011.0 |
| 20260905014203 | 67 | 272 | 0.0 | 1.0 | 0.00 | 0.00 | 0.00 | 76 | 1010.9 |
| 20260905013204 | 67 | 285 | 2.0 | 3.0 | 0.00 | 0.00 | 0.00 | 77 | 1010.9 |
| 20260905012704 | 67 | 284 | 2.0 | 7.0 | 0.00 | 0.00 | 0.00 | 76 | 1010.9 |
| 20260905012204 | 67 | 275 | 1.0 | 3.0 | 0.00 | 0.00 | 0.00 | 77 | 1010.9 |
| 20260905010704 | 68 | 295 | 1.0 | 3.0 | 0.00 | 0.00 | 0.00 | 76 | 1010.8 |
| 20260905010204 | 68 | 306 | 1.0 | 2.0 | 0.00 | 0.00 | 0.00 | 76 | 1010.7 |
| 20260905005704 | 68 | 328 | 1.0 | 3.0 | 0.00 | 0.00 | 0.00 | 77 | 1010.8 |
| 20260905004704 | 68 | 296 | 1.0 | 7.0 | 0.00 | 0.00 | 0.00 | 76 | 1010.7 |
| 20260905004204 | 68 | 279 | 2.0 | 3.0 | 0.00 | 0.00 | 0.00 | 75 | 1010.7 |
| 20260905003704 | 69 | 291 | 2.0 | 5.0 | 0.00 | 0.00 | 0.00 | 75 | 1010.6 |
| 20260905003204 | 69 | 305 | 1.0 | 3.0 | 0.00 | 0.00 | 0.00 | 75 | 1010.6 |
| 20260905002704 | 69 | 300 | 1.0 | 3.0 | 0.00 | 0.00 | 0.00 | 75 | 1010.6 |
| 20260905002204 | 69 | 276 | 0.0 | 2.0 | 0.00 | 0.00 | 0.00 | 75 | 1010.5 |
| 20260905001704 | 69 | 287 | 1.0 | 2.0 | 0.00 | 0.00 | 0.00 | 74 | 1010.5 |
| 20260905001203 | 69 | 288 | 1.0 | 3.0 | 0.00 | 0.00 | 0.00 | 75 | 1010.3 |
| 20260905000704 | 69 | 290 | 2.0 | 3.0 | 0.00 | 0.00 | 0.00 | 74 | 1010.3 |
| 20260905000204 | 69 | 291 | 2.0 | 3.0 | 0.00 | 0.00 | 0.00 | 74 | 1010.4 |
| 20260904235704 | 69 | 294 | 2.0 | 5.0 | 0.00 | 0.00 | 0.00 | 75 | 1010.3 |
| 20260904235203 | 69 | 290 | 2.0 | 12.0 | 0.00 | 0.00 | 0.00 | 73 | 1010.1 |
| 20260904234704 | 70 | 303 | 2.0 | 3.0 | 0.00 | 0.00 | 0.00 | 73 | 1010.2 |
| 20260904234204 | 70 | 288 | 3.0 | 5.0 | 0.00 | 0.00 | 0.00 | 72 | 1010.1 |
| 20260904233704 | 70 | 289 | 2.0 | 6.0 | 0.00 | 0.00 | 0.00 | 73 | 1010.2 |
| 20260904232704 | 70 | 284 | 5.0 | 8.0 | 0.00 | 0.00 | 0.00 | 76 | 1010.2 |
| 20260904232204 | 70 | 297 | 3.0 | 7.0 | 0.00 | 0.00 | 0.00 | 73 | 1010.1 |
| 20260904231204 | 71 | 289 | 2.0 | 5.0 | 0.00 | 0.00 | 0.00 | 74 | 1010.0 |
| 20260904230704 | 71 | 297 | 2.0 | 3.0 | 0.00 | 0.00 | 0.00 | 74 | 1010.1 |
| 20260904230204 | 71 | 293 | 3.0 | 6.0 | 0.00 | 0.00 | 0.00 | 74 | 1010.0 |
| 20260904225704 | 72 | 293 | 3.0 | 6.0 | 0.00 | 0.00 | 0.00 | 74 | 1010.0 |
| 20260904225204 | 72 | 287 | 2.0 | 6.0 | 0.00 | 0.00 | 0.00 | 75 | 1010.0 |
| 20260904224704 | 72 | 286 | 3.0 | 8.0 | 0.00 | 0.00 | 0.00 | 76 | 1009.9 |
| 20260904224204 | 72 | 292 | 3.0 | 7.0 | 0.00 | 0.00 | 0.00 | 74 | 1009.8 |
| 20260904223704 | 73 | 280 | 3.0 | 5.0 | 0.00 | 0.00 | 0.00 | 74 | 1009.7 |
| 20260904222703 | 73 | 290 | 4.0 | 9.0 | 0.00 | 0.00 | 0.00 | 74 | 1009.6 |
| 20260904222204 | 74 | 295 | 3.0 | 6.0 | 0.00 | 0.00 | 0.00 | 72 | 1009.6 |
| 20260904221705 | 74 | 291 | 3.0 | 7.0 | 0.00 | 0.00 | 0.00 | 72 | 1009.6 |
| 20260904221205 | 75 | 287 | 6.0 | 10.0 | 0.00 | 0.00 | 0.00 | 69 | 1009.5 |
| 20260904220205 | 76 | 289 | 5.0 | 8.0 | 0.00 | 0.00 | 0.00 | 67 | 1009.4 |
| 20260904215704 | 77 | 281 | 5.0 | 9.0 | 0.00 | 0.00 | 0.00 | 68 | 1009.3 |
| 20260904215205 | 77 | 295 | 4.0 | 7.0 | 0.00 | 0.00 | 0.00 | 68 | 1009.5 |
| 20260904214705 | 77 | 297 | 5.0 | 9.0 | 0.00 | 0.00 | 0.00 | 68 | 1009.5 |
| 20260904214204 | 78 | 287 | 4.0 | 7.0 | 0.00 | 0.00 | 0.00 | 67 | 1009.5 |
| 20260904213705 | 78 | 284 | 3.0 | 8.0 | 0.00 | 0.00 | 0.00 | 66 | 1009.5 |
| 20260904213205 | 78 | 289 | 4.0 | 8.0 | 0.00 | 0.00 | 0.00 | 66 | 1009.5 |
| 20260904212705 | 78 | 290 | 3.0 | 6.0 | 0.00 | 0.00 | 0.00 | 66 | 1009.6 |
| 20260904212205 | 78 | 292 | 3.0 | 7.0 | 0.00 | 0.00 | 0.00 | 67 | 1009.6 |
| 20260904211705 | 79 | 297 | 3.0 | 6.0 | 0.00 | 0.00 | 0.00 | 68 | 1009.7 |
| 20260904211205 | 79 | 292 | 4.0 | 9.0 | 0.00 | 0.00 | 0.00 | 66 | 1009.7 |
| 20260904210706 | 79 | 296 | 2.0 | 8.0 | 0.00 | 0.00 | 0.00 | 67 | 1009.8 |
| 20260904210205 | 78 | 293 | 3.0 | 6.0 | 0.00 | 0.00 | 0.00 | 69 | 1009.8 |
| 20260904205705 | 78 | 301 | 3.0 | 8.0 | 0.00 | 0.00 | 0.00 | 66 | 1009.8 |
| 20260904205205 | 78 | 300 | 3.0 | 6.0 | 0.00 | 0.00 | 0.00 | 69 | 1009.8 |
| 20260904204705 | 77 | 287 | 3.0 | 7.0 | 0.00 | 0.00 | 0.00 | 68 | 1009.9 |
| 20260904204205 | 78 | 291 | 2.0 | 3.0 | 0.00 | 0.00 | 0.00 | 66 | 1009.9 |
| 20260904203705 | 78 | 285 | 2.0 | 3.0 | 0.00 | 0.00 | 0.00 | 66 | 1009.9 |
| 20260904203206 | 78 | 293 | 2.0 | 5.0 | 0.00 | 0.00 | 0.00 | 66 | 1010.0 |
| 20260904202705 | 78 | 292 | 2.0 | 3.0 | 0.00 | 0.00 | 0.00 | 66 | 1010.1 |
| 20260904201706 | 79 | 298 | 3.0 | 7.0 | 0.00 | 0.00 | 0.00 | 62 | 1010.0 |
| 20260904201205 | 79 | 289 | 2.0 | 3.0 | 0.00 | 0.00 | 0.00 | 64 | 1010.0 |
| 20260904200705 | 79 | 287 | 4.0 | 8.0 | 0.00 | 0.00 | 0.00 | 65 | 1010.0 |
| 20260904200205 | 79 | 295 | 3.0 | 7.0 | 0.00 | 0.00 | 0.00 | 63 | 1010.0 |
| 20260904195705 | 80 | 293 | 3.0 | 8.0 | 0.00 | 0.00 | 0.00 | 64 | 1010.0 |
| 20260904195206 | 80 | 285 | 3.0 | 7.0 | 0.00 | 0.00 | 0.00 | 64 | 1010.0 |
| 20260904194205 | 80 | 288 | 2.0 | 7.0 | 0.00 | 0.00 | 0.00 | 60 | 1010.1 |
| 20260904193705 | 80 | 286 | 5.0 | 7.0 | 0.00 | 0.00 | 0.00 | 61 | 1010.1 |
| 20260904193205 | 80 | 284 | 6.0 | 9.0 | 0.00 | 0.00 | 0.00 | 62 | 1010.2 |
| 20260904192704 | 80 | 288 | 4.0 | 7.0 | 0.00 | 0.00 | 0.00 | 63 | 1010.2 |
| 20260904191704 | 80 | 287 | 4.0 | 7.0 | 0.00 | 0.00 | 0.00 | 58 | 1010.2 |
| 20260904191205 | 80 | 289 | 4.0 | 8.0 | 0.00 | 0.00 | 0.00 | 65 | 1010.4 |
| 20260904190704 | 80 | 288 | 5.0 | 8.0 | 0.00 | 0.00 | 0.00 | 63 | 1010.3 |
| 20260904190205 | 80 | 286 | 4.0 | 7.0 | 0.00 | 0.00 | 0.00 | 63 | 1010.4 |
| 20260904185205 | 80 | 280 | 5.0 | 9.0 | 0.00 | 0.00 | 0.00 | 65 | 1010.3 |
| 20260904184705 | 80 | 289 | 6.0 | 9.0 | 0.00 | 0.00 | 0.00 | 67 | 1010.4 |
| 20260904184205 | 79 | 290 | 2.0 | 3.0 | 0.00 | 0.00 | 0.00 | 66 | 1010.4 |
| 20260904183205 | 79 | 322 | 2.0 | 3.0 | 0.00 | 0.00 | 0.00 | 69 | 1010.6 |
| 20260904182705 | 79 | 319 | 2.0 | 3.0 | 0.00 | 0.00 | 0.00 | 67 | 1010.5 |
| 20260904182205 | 78 | 293 | 2.0 | 8.0 | 0.00 | 0.00 | 0.00 | 69 | 1010.6 |
| 20260904181705 | 78 | 299 | 2.0 | 3.0 | 0.00 | 0.00 | 0.00 | 68 | 1010.8 |
| 20260904181204 | 79 | 312 | 3.0 | 6.0 | 0.00 | 0.00 | 0.00 | 67 | 1010.9 |
| 20260904180705 | 80 | 326 | 2.0 | 3.0 | 0.00 | 0.00 | 0.00 | 63 | 1010.8 |
| 20260904175705 | 80 | 286 | 6.0 | 9.0 | 0.00 | 0.00 | 0.00 | 66 | 1010.9 |
| 20260904175204 | 80 | 286 | 4.0 | 9.0 | 0.00 | 0.00 | 0.00 | 68 | 1010.9 |
| 20260904174705 | 80 | 279 | 3.0 | 9.0 | 0.00 | 0.00 | 0.00 | 65 | 1011.0 |
| 20260904174205 | 79 | 298 | 2.0 | 9.0 | 0.00 | 0.00 | 0.00 | 68 | 1010.9 |
| 20260904173706 | 79 | 281 | 2.0 | 3.0 | 0.00 | 0.00 | 0.00 | 62 | 1010.8 |
| 20260904172205 | 80 | 282 | 3.0 | 7.0 | 0.00 | 0.00 | 0.00 | 66 | 1010.6 |
| 20260904171705 | 80 | 288 | 3.0 | 9.0 | 0.00 | 0.00 | 0.00 | 66 | 1010.6 |
| 20260904171204 | 79 | 315 | 5.0 | 10.0 | 0.00 | 0.00 | 0.00 | 68 | 1010.5 |
| 20260904170205 | 78 | 287 | 7.0 | 10.0 | 0.00 | 0.00 | 0.00 | 74 | 1010.6 |
| 20260904165705 | 77 | 282 | 3.0 | 5.0 | 0.00 | 0.00 | 0.00 | 70 | 1010.8 |
| 20260904165204 | 78 | 331 | 2.0 | 3.0 | 0.00 | 0.00 | 0.00 | 69 | 1010.8 |
| 20260904164705 | 78 | 302 | 2.0 | 9.0 | 0.00 | 0.00 | 0.00 | 65 | 1010.8 |
| 20260904164204 | 79 | 289 | 2.0 | 8.0 | 0.00 | 0.00 | 0.00 | 64 | 1010.8 |
| 20260904162704 | 79 | 323 | 2.0 | 8.0 | 0.00 | 0.00 | 0.00 | 69 | 1010.9 |
| 20260904162204 | 79 | 287 | 3.0 | 7.0 | 0.00 | 0.00 | 0.00 | 68 | 1011.0 |
| 20260904161705 | 78 | 302 | 4.0 | 7.0 | 0.00 | 0.00 | 0.00 | 69 | 1011.0 |
| 20260904161205 | 79 | 287 | 2.0 | 5.0 | 0.00 | 0.00 | 0.00 | 70 | 1011.1 |
| 20260904160704 | 79 | 288 | 3.0 | 7.0 | 0.00 | 0.00 | 0.00 | 70 | 1011.1 |
| 20260904154205 | 78 | 8 | 0.0 | 3.0 | 0.00 | 0.00 | 0.00 | 71 | 1011.2 |
| 20260904153704 | 78 | 355 | 1.0 | 3.0 | 0.00 | 0.00 | 0.00 | 71 | 1011.3 |
| 20260904153205 | 79 | 297 | 1.0 | 6.0 | 0.00 | 0.00 | 0.00 | 70 | 1011.6 |
| 20260904152705 | 78 | 290 | 2.0 | 3.0 | 0.00 | 0.00 | 0.00 | 69 | 1011.7 |
| 20260904152204 | 78 | 283 | 3.0 | 5.0 | 0.00 | 0.00 | 0.00 | 72 | 1011.8 |
| 20260904151204 | 78 | 293 | 2.0 | 3.0 | 0.00 | 0.00 | 0.00 | 74 | 1011.7 |
| 20260904150706 | 77 | 289 | 4.0 | 6.0 | 0.00 | 0.00 | 0.00 | 74 | 1011.7 |
| 20260904150204 | 76 | 282 | 1.0 | 3.0 | 0.00 | 0.00 | 0.00 | 75 | 1011.9 |
| 20260904145705 | 75 | 302 | 2.0 | 3.0 | 0.00 | 0.00 | 0.00 | 76 | 1011.8 |
| 20260904145205 | 75 | 297 | 1.0 | 2.0 | 0.00 | 0.00 | 0.00 | 75 | 1011.9 |
| 20260904144705 | 76 | 290 | 2.0 | 7.0 | 0.00 | 0.00 | 0.00 | 76 | 1011.9 |
| 20260904143705 | 76 | 298 | 2.0 | 5.0 | 0.00 | 0.00 | 0.00 | 77 | 1011.8 |
| 20260904143204 | 76 | 273 | 1.0 | 3.0 | 0.00 | 0.00 | 0.00 | 77 | 1011.8 |
| 20260904142704 | 75 | 292 | 2.0 | 3.0 | 0.00 | 0.00 | 0.00 | 78 | 1011.6 |
| 20260904142205 | 75 | 287 | 3.0 | 3.0 | 0.00 | 0.00 | 0.00 | 77 | 1011.7 |
| 20260904140705 | 75 | 289 | 0.0 | 0.0 | 0.00 | 0.00 | 0.00 | 79 | 1011.7 |
| 20260904135205 | 74 | 289 | 0.0 | 0.0 | 0.00 | 0.00 | 0.00 | 77 | 1011.6 |
| 20260904134704 | 74 | 331 | 0.0 | 0.0 | 0.00 | 0.00 | 0.00 | 78 | 1011.6 |
| 20260904133704 | 73 | 277 | 0.0 | 0.0 | 0.00 | 0.00 | 0.00 | 82 | 1011.5 |
| 20260904133204 | 73 | 281 | 0.0 | 0.0 | 0.00 | 0.00 | 0.00 | 81 | 1011.5 |
| 20260904132705 | 72 | 285 | 0.0 | 0.0 | 0.00 | 0.00 | 0.00 | 82 | 1011.7 |
| 20260904131705 | 72 | 282 | 0.0 | 0.0 | 0.00 | 0.00 | 0.00 | 84 | 1011.6 |
| 20260904131204 | 71 | 298 | 2.0 | 3.0 | 0.00 | 0.00 | 0.00 | 85 | 1011.6 |
| 20260904130704 | 70 | 285 | 0.0 | 0.0 | 0.00 | 0.00 | 0.00 | 86 | 1011.7 |
| 20260904130204 | 70 | 311 | 2.0 | 3.0 | 0.00 | 0.00 | 0.00 | 87 | 1011.7 |
| 20260904125705 | 70 | 274 | 2.0 | 5.0 | 0.00 | 0.00 | 0.00 | 88 | 1011.7 |
| 20260904125205 | 69 | 290 | 1.0 | 3.0 | 0.00 | 0.00 | 0.00 | 88 | 1011.8 |
| 20260904124704 | 69 | 272 | 2.0 | 3.0 | 0.00 | 0.00 | 0.00 | 88 | 1011.8 |
| 20260904124204 | 68 | 298 | 2.0 | 5.0 | 0.00 | 0.00 | 0.00 | 90 | 1011.8 |
| 20260904123704 | 68 | 295 | 1.0 | 3.0 | 0.00 | 0.00 | 0.00 | 91 | 1011.8 |
| 20260904122705 | 67 | 301 | 1.0 | 3.0 | 0.00 | 0.00 | 0.00 | 93 | 1011.8 |
| 20260904121705 | 65 | 276 | 0.0 | 5.0 | 0.00 | 0.00 | 0.00 | 96 | 1011.7 |
| 20260904121205 | 65 | 301 | 1.0 | 6.0 | 0.00 | 0.00 | 0.00 | 96 | 1011.7 |
| 20260904120705 | 65 | 298 | 0.0 | 0.0 | 0.00 | 0.00 | 0.00 | 95 | 1011.8 |
| 20260904120204 | 65 | 295 | 0.0 | 0.0 | 0.00 | 0.00 | 0.00 | 96 | 1011.7 |
| 20260904115704 | 65 | 294 | 0.0 | 0.0 | 0.00 | 0.00 | 0.00 | 95 | 1011.6 |
| 20260904115204 | 64 | 315 | 0.0 | 0.0 | 0.00 | 0.00 | 0.00 | 97 | 1011.6 |
| 20260904114705 | 63 | 309 | 0.0 | 0.0 | 0.00 | 0.00 | 0.00 | 98 | 1011.5 |
| 20260904114205 | 63 | 305 | 0.0 | 0.0 | 0.00 | 0.00 | 0.00 | 99 | 1011.4 |
| 20260904113704 | 63 | 305 | 0.0 | 0.0 | 0.00 | 0.00 | 0.00 | 99 | 1011.5 |
| 20260904113205 | 62 | 307 | 0.0 | 0.0 | 0.00 | 0.00 | 0.00 | 99 | 1011.4 |
| 20260904112704 | 62 | 82 | 0.0 | 0.0 | 0.00 | 0.00 | 0.00 | 99 | 1011.4 |
| 20260904112205 | 61 | 82 | 0.0 | 0.0 | 0.00 | 0.00 | 0.00 | 99 | 1011.5 |
| 20260904111205 | 60 | 94 | 0.0 | 0.0 | 0.00 | 0.00 | 0.00 | 99 | 1011.2 |
| 20260904110705 | 60 | 84 | 0.0 | 0.0 | 0.00 | 0.00 | 0.00 | 99 | 1011.2 |
| 20260904110204 | 59 | 84 | 0.0 | 0.0 | 0.00 | 0.00 | 0.00 | 99 | 1011.2 |
| 20260904105704 | 59 | 84 | 0.0 | 0.0 | 0.00 | 0.00 | 0.00 | 99 | 1011.1 |
| 20260904105205 | 59 | 84 | 0.0 | 0.0 | 0.00 | 0.00 | 0.00 | 99 | 1011.2 |
| 20260904104205 | 59 | 84 | 0.0 | 0.0 | 0.00 | 0.00 | 0.00 | 98 | 1011.1 |
| 20260904103204 | 60 | 84 | 0.0 | 0.0 | 0.00 | 0.00 | 0.00 | 98 | 1010.8 |
| 20260904102704 | 60 | 84 | 0.0 | 0.0 | 0.00 | 0.00 | 0.00 | 98 | 1010.7 |
| 20260904102204 | 60 | 84 | 0.0 | 0.0 | 0.00 | 0.00 | 0.00 | 98 | 1010.8 |
| 20260904101705 | 60 | 84 | 0.0 | 0.0 | 0.00 | 0.00 | 0.00 | 99 | 1010.7 |
| 20260904101204 | 60 | 84 | 0.0 | 0.0 | 0.00 | 0.00 | 0.00 | 99 | 1010.7 |
| 20260904100704 | 60 | 84 | 0.0 | 0.0 | 0.00 | 0.00 | 0.00 | 98 | 1010.8 |
| 20260904100204 | 60 | 84 | 0.0 | 0.0 | 0.00 | 0.00 | 0.00 | 98 | 1010.8 |
| 20260904094704 | 60 | 113 | 0.0 | 0.0 | 0.00 | 0.00 | 0.00 | 98 | 1010.7 |
| 20260904094204 | 60 | 113 | 0.0 | 0.0 | 0.00 | 0.00 | 0.00 | 98 | 1010.7 |
| 20260904093704 | 60 | 113 | 0.0 | 0.0 | 0.00 | 0.00 | 0.00 | 98 | 1010.5 |
| 20260904093204 | 60 | 113 | 0.0 | 0.0 | 0.00 | 0.00 | 0.00 | 98 | 1010.5 |
| 20260904092704 | 60 | 112 | 0.0 | 0.0 | 0.00 | 0.00 | 0.00 | 98 | 1010.5 |
| 20260904092205 | 60 | 112 | 0.0 | 0.0 | 0.00 | 0.00 | 0.00 | 97 | 1010.4 |
| 20260904091704 | 61 | 137 | 0.0 | 0.0 | 0.00 | 0.00 | 0.00 | 98 | 1010.6 |
| 20260904091206 | 61 | 137 | 0.0 | 0.0 | 0.00 | 0.00 | 0.00 | 98 | 1010.5 |
| 20260904090705 | 61 | 173 | 0.0 | 0.0 | 0.00 | 0.00 | 0.00 | 98 | 1010.5 |
| 20260904085704 | 61 | 92 | 0.0 | 0.0 | 0.00 | 0.00 | 0.00 | 98 | 1010.4 |
| 20260904085204 | 61 | 92 | 0.0 | 0.0 | 0.00 | 0.00 | 0.00 | 98 | 1010.4 |
| 20260904084704 | 61 | 92 | 0.0 | 0.0 | 0.00 | 0.00 | 0.00 | 98 | 1010.2 |
| 20260904083704 | 61 | 92 | 0.0 | 0.0 | 0.00 | 0.00 | 0.00 | 98 | 1010.2 |
| 20260904083204 | 61 | 57 | 0.0 | 0.0 | 0.00 | 0.00 | 0.00 | 98 | 1010.2 |
| 20260904082704 | 61 | 105 | 0.0 | 0.0 | 0.00 | 0.00 | 0.00 | 98 | 1010.3 |
| 20260904082205 | 61 | 128 | 0.0 | 0.0 | 0.00 | 0.00 | 0.00 | 98 | 1010.1 |
| 20260904081204 | 62 | 78 | 0.0 | 0.0 | 0.00 | 0.00 | 0.00 | 98 | 1009.9 |
| 20260904080704 | 62 | 78 | 0.0 | 0.0 | 0.00 | 0.00 | 0.00 | 98 | 1010.1 |
| 20260904080204 | 62 | 197 | 0.0 | 0.0 | 0.00 | 0.00 | 0.00 | 98 | 1010.1 |
| 20260904075704 | 62 | 123 | 0.0 | 0.0 | 0.00 | 0.00 | 0.00 | 98 | 1010.0 |
| 20260904075204 | 62 | 94 | 0.0 | 0.0 | 0.00 | 0.00 | 0.00 | 98 | 1009.9 |
| 20260904074705 | 62 | 116 | 0.0 | 0.0 | 0.00 | 0.00 | 0.00 | 98 | 1010.0 |
| 20260904073704 | 61 | 120 | 0.0 | 0.0 | 0.00 | 0.00 | 0.00 | 98 | 1010.1 |
| 20260904073206 | 61 | 149 | 0.0 | 0.0 | 0.00 | 0.00 | 0.00 | 97 | 1010.2 |